FW8513 Weather Reports


Display with metric or nautical units.
time (UTC)temp
F
wind
direction
speed
MPH
gust
MPH
rain 1hr
in
rain 24hr
in
rain mn
in
humidity
%
barometer
mb
20260505234600 49 5 13.0 21.0 0.00 0.00 0.00 31 1019.0
20260505233038 49 32 13.0 21.0 0.00 0.00 0.00 30 1018.8
20260505231542 48 347 13.0 24.0 0.00 0.00 0.00 31 1018.8
20260505230042 49 344 14.0 26.0 0.00 0.00 0.00 30 1018.6
20260505224536 50 352 17.0 25.0 0.00 0.00 0.00 29 1018.8
20260505223057 48 341 14.0 20.0 0.00 0.00 0.00 32 1018.9
20260505221537 50 16 15.0 25.0 0.00 0.00 0.00 31 1018.9
20260505220043 49 32 12.0 28.0 0.00 0.00 0.00 31 1018.9
20260505214552 50 27 17.0 28.0 0.00 0.00 0.00 31 1019.0
20260505213037 49 9 13.0 23.0 0.00 0.00 0.00 31 1019.3
20260505211542 49 360 15.0 21.0 0.00 0.00 0.00 32 1019.5
20260505210042 49 343 15.0 23.0 0.00 0.00 0.00 33 1019.5
20260505204542 48 360 13.0 27.0 0.00 0.00 0.00 35 1019.7
20260505203051 48 46 15.0 25.0 0.00 0.00 0.00 33 1019.6
20260505201538 47 336 12.0 25.0 0.00 0.00 0.00 36 1019.7
20260505200038 47 355 14.0 25.0 0.00 0.00 0.00 37 1019.8
20260505194541 47 44 12.0 24.0 0.00 0.00 0.00 36 1019.7
20260505193042 47 32 12.0 22.0 0.00 0.00 0.00 37 1019.9
20260505191546 47 352 15.0 25.0 0.00 0.00 0.00 38 1020.0
20260505190041 47 17 15.0 24.0 0.00 0.00 0.00 39 1019.9
20260505184546 46 341 13.0 21.0 0.00 0.00 0.00 39 1019.9
20260505183047 46 336 15.0 22.0 0.00 0.00 0.00 40 1019.9
20260505181543 46 360 15.0 23.0 0.00 0.00 0.00 39 1020.0
20260505180046 45 355 14.0 22.0 0.00 0.00 0.00 44 1020.0
20260505174537 45 5 10.0 22.0 0.00 0.00 0.00 44 1019.8
20260505173036 45 82 12.0 20.0 0.00 0.00 0.00 47 1019.7
20260505171537 45 40 13.0 20.0 0.00 0.00 0.00 45 1019.7
20260505170037 43 15 11.0 18.0 0.00 0.00 0.00 51 1019.6
20260505164537 41 352 11.0 17.0 0.00 0.00 0.00 54 1019.7
20260505163037 42 5 12.0 18.0 0.00 0.00 0.00 54 1019.6
20260505161539 40 28 7.0 16.0 0.00 0.00 0.00 60 1019.6
20260505153043 39 350 8.0 16.0 0.00 0.00 0.00 66 1020.0
20260505151544 39 338 9.0 14.0 0.00 0.00 0.00 67 1020.0
20260505124540 36 40 4.0 9.0 0.00 0.00 0.00 67 1019.2
20260505123037 35 32 4.0 8.0 0.00 0.00 0.00 70 1019.1
20260505121540 35 355 6.0 9.0 0.00 0.00 0.00 71 1019.1
20260505120043 35 5 5.0 8.0 0.00 0.00 0.00 69 1019.1
20260505114543 35 352 5.0 9.0 0.00 0.00 0.00 69 1018.9
20260505113044 35 347 6.0 10.0 0.00 0.00 0.00 70 1018.9
20260505111544 36 344 7.0 10.0 0.00 0.00 0.00 70 1018.9
20260505101545 38 346 9.0 14.0 0.00 0.00 0.00 64 1018.8
20260505100038 38 342 11.0 17.0 0.00 0.00 0.00 63 1018.8
20260505094537 39 348 12.0 16.0 0.00 0.00 0.00 61 1018.6
20260505093049 39 355 10.0 15.0 0.00 0.00 0.00 61 1018.5
20260505091535 39 352 7.0 14.0 0.00 0.00 0.00 57 1018.3
20260505090042 38 335 4.0 9.0 0.00 0.00 0.00 57 1018.4
20260505084538 37 53 1.0 3.0 0.00 0.00 0.00 57 1018.3
20260505083050 37 53 1.0 3.0 0.00 0.00 0.00 56 1018.2
20260505081538 37 0 0.0 0.0 0.00 0.00 0.00 56 1018.2
20260505080035 37 0 0.0 0.0 0.00 0.00 0.00 55 1018.0
20260505074535 37 0 0.0 1.0 0.00 0.00 0.00 56 1018.4
20260505073042 37 0 0.0 2.0 0.00 0.00 0.00 55 1018.2
20260505071536 37 0 0.0 3.0 0.00 0.00 0.00 54 1018.4
20260505070048 37 0 0.0 0.0 0.00 0.00 0.00 55 1018.3
20260505064537 37 0 0.0 1.0 0.00 0.00 0.00 55 1018.2
20260505063035 38 0 0.0 5.0 0.00 0.00 0.00 53 1018.1
20260505061608 39 52 3.0 6.0 0.00 0.00 0.00 52 1018.2
20260505060044 40 53 2.0 4.0 0.00 0.00 0.00 51 1017.9
20260505054545 41 53 2.0 4.0 0.00 0.00 0.00 50 1017.8
20260505053045 41 53 1.0 4.0 0.00 0.00 0.00 50 1017.5
20260505051624 42 76 3.0 5.0 0.00 0.00 0.00 48 1017.5
20260505041536 43 80 4.0 8.0 0.00 0.00 0.00 47 1017.1
20260505040052 43 87 3.0 8.0 0.00 0.00 0.00 46 1016.9
20260505034544 44 76 2.0 8.0 0.00 0.00 0.00 45 1017.0
20260505033037 44 55 3.0 6.0 0.00 0.00 0.00 44 1016.8
20260505031550 44 44 4.0 9.0 0.00 0.00 0.00 42 1016.5
20260505030036 45 43 4.0 11.0 0.00 0.00 0.00 41 1016.4
20260505024542 45 46 5.0 12.0 0.00 0.00 0.00 40 1016.3
20260505023042 46 47 6.0 11.0 0.00 0.00 0.00 36 1016.0
20260505021538 48 46 8.0 17.0 0.00 0.00 0.00 33 1015.9
20260505020040 49 24 10.0 20.0 0.00 0.00 0.00 31 1015.9
20260505014542 50 16 13.0 22.0 0.00 0.00 0.00 27 1015.6
20260505013035 52 13 15.0 27.0 0.00 0.00 0.00 25 1015.7
20260505011545 53 44 14.0 24.0 0.00 0.00 0.00 24 1015.6
20260505010048 54 336 16.0 24.0 0.00 0.00 0.00 22 1015.6
20260505004536 54 30 14.0 29.0 0.00 0.00 0.00 22 1015.4
20260505003035 55 323 19.0 28.0 0.00 0.00 0.00 22 1015.6
20260505001535 54 355 17.0 24.0 0.00 0.00 0.00 23 1015.6
20260505000049 54 13 11.0 20.0 0.00 0.00 0.00 24 1015.6